Location: Newark
(48.1500°N, 2.9667°W)
Time: 04:53:43
(UTC+00:00)

Altair - Pass Details

Date: 04 February 2020
Orbit: 1502 x 1682 km, 47.2° (Epoch: 17 February)

Event Time Altitude Azimuth Distance (km) Brightness Sun altitude
Rises 13:55:45 0° 289° (WNW) 4,939 10.2 22.5°
Reaches altitude 10° 14:00:12 10° 273° (W) 3,946 10.0 22.2°
Maximum altitude 14:06:26 19° 234° (SW) 3,287 10.6 21.8°
Drops below altitude 10° 14:12:37 10° 195° (SSW) 3,892 11.5 21.3°
Sets 14:17:01 0° 178° (S) 4,848 11.1 21.0°
